Overview Statistics Trail Chart Weather Telemetry Raw packets
 

This is the latest recevied weather packets stored in our database for station/object DG3NAD-21. If no packets are shown the sender has not sent any weather packets the latest 10 day(s).

<< 30 31 32 33 34 35 36 >>
Time Temp. Humidity Pressure Rain* Wind** Luminosity Snow
1787899287 23.89° C 58% 1016.2 hPa - - - -
1787898387 24.44° C 56% 1013.5 hPa - - - -
1787897487 25° C 55% 1013 hPa - - - -
1787896587 24.44° C 56% 1013 hPa - - - -
1787895686 23.89° C 57% 1013.7 hPa - - - -
1787894786 23.89° C 58% 1014.8 hPa - - - -
1787893886 23.89° C 58% 1016.5 hPa - - - -
1787892986 24.44° C 57% 1015.4 hPa - - - -
1787892086 24.44° C 55% 1014.2 hPa - - - -
1787891186 24.44° C 58% 1014.2 hPa - - - -
1787890286 24.44° C 57% 1013.8 hPa - - - -
1787889386 24.44° C 57% 1013.5 hPa - - - -
1787888486 24.44° C 56% 1013.4 hPa - - - -
1787887586 24.44° C 56% 1013.9 hPa - - - -
1787886685 25° C 56% 1014.3 hPa - - - -
1787885785 25° C 55% 1014 hPa - - - -
1787884885 25° C 55% 1014.2 hPa - - - -
1787883985 25° C 53% 1014.3 hPa - - - -
1787883085 25.56° C 52% 1014.8 hPa - - - -
1787882185 25.56° C 52% 1015.6 hPa - - - -
1787881285 25.56° C 48% 1015.8 hPa - - - -
1787880385 26.11° C 45% 1016.3 hPa - - - -
1787879485 26.11° C 45% 1016.4 hPa - - - -
1787878585 26.11° C 44% 1013.8 hPa - - - -
1787877685 26.11° C 43% 1013.3 hPa - - - -

* Rain since midnight (hover to see other rain measurements)
** Current wind speed in m/s (hover to see current wind gust speed)